RESURS-DK 1

Last updated on Tue Oct 15 2024 00:02:10 GMT+0000 (Coordinated Universal Time)

1 29228U 06021A 24288.49765227 .00004313 00000+0 28222-3 0 9997 2 29228 69.9332 115.4933 0005952 218.5444 141.5296 15.08517628 10318
UTC large
Height (km)
Speed (km/s)
/
Latitude / Longitude
Inclination (degrees)
Orbital Period (minutes)
Azimuth
Elevation
Range (km)
Doppler Factor

Next 0 passes for location: London (51.5072 / 0.1276)

Sorry there are no passes over London.